Regional Weather Roundup
Issued by NWS Jackson, KY

Home | Current Version | Previous Version | Graphics & Text | Print | Product List | Glossary On
Versions: 1 2 3 4 5 6 7 8 9 10 11 12 13 14 15 16 17 18 19 20 21 22 23 24 25 26 27 28 29 30 31 32 33 34 35 36 37 38 39 40 41 42 43 44 45 46 47 48 49 50
000
ASUS43 KJKL 300610
RWRJKL

EAST KENTUCKY HOURLY WEATHER ROUNDUP
NATIONAL WEATHER SERVICE JACKSON KY
200 AM EDT TUE JUN 30 2015

NOTE: "FAIR" INDICATES FEW OR NO CLOUDS BELOW 12,000 FEET WITH
NO SIGNIFICANT WEATHER AND/OR OBSTRUCTIONS TO VISIBILITY.

* THESE REPORTS ARE NOT UNDER NWS QUALITY CONTROL AND MAY NOT
  REPORT WEATHER SUCH AS PRECIPITATION AND FOG.

KYZ079-080-083-085-087-088-110-112-115-119-120-300700
...EASTERN KENTUCKY...

CITY           SKY/WX    TMP DP  RH WIND       PRES   REMARKS
JACKSON        CLOUDY    67  64  90 VRB3      29.91F
6HR MIN TEMP:  67; 6HR MAX TEMP:  69; 6HR PCP:  0.05;

LONDON         CLOUDY    67  61  81 SW5       29.93F
6HR MIN TEMP:  67; 6HR MAX TEMP:  72; 6HR PCP: TRACE;

SOMERSET*      MOCLDY    64  64 100 CALM      29.93F
MONTICELLO*    CLOUDY    67  67 100 CALM      29.95F
6HR MIN TEMP:  67; 6HR MAX TEMP:  68;

MIDDLESBORO*   LGT RAIN  66  66 100 CALM      29.95F
6HR MIN TEMP:  66; 6HR MAX TEMP:  79; 6HR PCP:  0.10;

HARLAN APT*      N/A     64  64 100 CALM      29.95F
HAZARD APT*    MOCLDY    68  66  94 SW6       29.92
BLACK MTN*       N/A     61  61 100 SW6         N/A
PIKEVILLE APT* CLEAR     68  64  88 CALM      29.91F
BIG SANDY*     CLOUDY    69  65  85 SW3       29.90F
6HR MIN TEMP:  69; 6HR MAX TEMP:  76;

MOREHEAD APT*  CLOUDY    66  64  94 SW9G15    29.90F
$$

KYZ035-036-041-042-044-050-067-078-099-300700
...CENTRAL KENTUCKY...

CITY           SKY/WX    TMP DP  RH WIND       PRES   REMARKS
MT STERLING*   MOCLDY    66  66 100 W6        29.90F
FLEMING/MASON* CLEAR     64  64 100 SW8       29.88S
DANVILLE*      CLOUDY    64  64 100 SW5       29.92S
RICHMOND*      CLOUDY    68  64  88 SW7       29.90F
LEXINGTON      PTCLDY    66  65  96 SW8       29.89S
6HR MIN TEMP:  66; 6HR MAX TEMP:  73;

FRANKFORT      PTCLDY    65  63  93 SW5       29.87S
6HR MIN TEMP:  65; 6HR MAX TEMP:  74;

$$

KYZ091>093-OHZ055-061-077-WVZ005-015-034-035-042-300700
...SOUTHERN OHIO/WEST VIRGINIA...

CITY           SKY/WX    TMP DP  RH WIND       PRES   REMARKS
COVINGTON      PTCLDY    66  64  93 S5        29.84F
COLUMBUS       PTCLDY    63  63 100 CALM      29.82S
DAYTON         MOCLDY    63  62  97 CALM      29.84F
WILMINGTON     PTCLDY    64  62  93 SW3       29.83F FOG
HUNTINGTON     MOCLDY    65  65 100 SW3       29.86S
CHARLESTON     CLOUDY    67  65  93 CALM      29.86S
PINEVILLE*     CLOUDY    67  65  93 MISG      29.98F
BECKLEY        CLOUDY    68  57  68 S8        29.96F
BLUEFIELD      CLOUDY    68  58  70 SW6       30.00F
$$

VAZ002-007-008-TNZ017-027-036-066-071-300700
...SOUTHWEST VIRGINIA/EAST TENNESSEE...

CITY           SKY/WX    TMP DP  RH WIND       PRES   REMARKS
WISE*          CLOUDY    64  64 100 SW9       30.00S
JONESVILLE*      N/A    N/A N/A N/A MISG        N/A
ABINGDON*      CLOUDY    69  63  81 CALM      29.98F
BRISTOL        CLOUDY    69  62  78 SW5       29.97S
KNOXVILLE      MOCLDY    68  66  93 SE9       29.94F
OAK RIDGE      LGT RAIN  67  64  90 CALM      29.97F
CROSSVILLE     CLOUDY    67  64  90 NE6       29.99F
NASHVILLE      CLOUDY    73  72  96 CALM      29.90F
$$

...KEY TO REMARKS...
VSB - VISIBILITY IN MILES
WCI - WIND CHILL INDEX
HX  - HEAT INDEX

$$



USA.gov is the U.S. government's official web portal to all federal, state and local government web resources and services.